Find USA 81

NORAD ID: 21949 Int'l Des: 1992-023 Owner: NRO Country: US operational
LEOCIRCULARPOLAR

現在のビュー

3D地球を読み込み中...

About USA 81

USA 81 (NORAD 21949) is a satellite launched Apr 25, 1992 by NRO of US. It operates in LEO, CIRCULAR, POLAR orbit with a mass of 1450.00 kg.

次回通過

Passes for default location (London). Set your location on the main map for personalized predictions.

高度履歴

Loading altitude history...

軌道要素

1 21949U 92023A 26195.16944021 .00000112 00000-0 34052-4 0 9993
2 21949 85.0051 58.4309 0002034 65.0650 295.0754 14.32404781112893
Epoch: Jul 14, 2026 • Age: 10 hours

現在のステータス

高度 795.3 km
遠地点 / 近地点 N/A
速度 7.46 km/s
衛星直下点 75.91°N, 71.27°W
打ち上げ日 Apr 25, 1992
運用期間 34.2 years
タイプ military

技術仕様

分類 Payload
質量 1450.00 kg
乾燥質量 1200.00 kg
総質量 1450.00 kg
長さ 0.50 m
直径 1.00 m
スパン 10.00 m
形状 Cyl + Ant
製造者 LMSC/MOTO
バスタイプ NRO-T2
フェーズステータス In Orbit
所有者/国 NRO/US

Most Searched